Regional Weather Roundup
Issued by NWS

Home | Current Version | Previous Version | Graphics & Text | Print | Product List | Glossary Off
Versions: 1 2 3 4 5 6 7 8 9 10 11 12 13 14 15 16 17 18 19 20 21 22 23 24 25 26 27 28 29 30 31 32 33 34 35 36 37 38 39 40 41 42 43 44 45 46 47 48 49 50

000
ASUS43 KMKX 242300
RWRWI

WISCONSIN REGIONAL WEATHER ROUNDUP
NATIONAL WEATHER SERVICE MILWAUKEE/SULLIVAN WI
600 PM CDT SUN JUL 24 2016

NOTE: "FAIR" INDICATES FEW OR NO CLOUDS BELOW 12,000 FEET WITH NO
SIGNIFICANT WEATHER AND/OR OBSTRUCTIONS TO VISIBILITY.

WIZ001-002-006>008-014>016-023>028-250000-
NORTHWEST WISCONSIN

CITY           SKY/WX    TMP DP  RH WIND       PRES   REMARKS
SUPERIOR ARPT  PTSUNNY   81  62  52 W12G18    29.84S HX  82
ASHLAND        SUNNY     82  60  47 W16G23    29.84R HX  82
HAYWARD        MOSUNNY   80  61  52 W7        29.89R HX  81
SIREN          SUNNY     81  57  44 W13G20    29.91R HX  81
CUMBERLAND     MOSUNNY   77  57  50 W14G21    29.93R
RICE LAKE      SUNNY     80  61  52 W14G20    29.93R HX  81
CHETEK         SUNNY     81  63  53 MISG      29.91R HX  83
LADYSMITH      SUNNY     81  64  56 W12G18    29.91R HX  82
EAU CLAIRE     NOT AVBL
MENOMONIE      SUNNY     84  62  46 W15       29.92R HX  85
NEW RICHMOND   SUNNY     80  58  47 W12       29.94R HX  81
OSCEOLA        MOSUNNY   81  61  49 W14G20    29.95S HX  82
$$

WIZ003>005-009-010-017-018-250000-
NORTH CENTRAL WISCONSIN

CITY           SKY/WX    TMP DP  RH WIND       PRES   REMARKS
MANITOWISH WTR MOSUNNY   80  63  56 W9G22     29.85R HX  81
ARBOR VITAE    MOSUNNY   82  66  59 W12       29.85R HX  84
WOODRUFF       MOSUNNY   82  66  59 W12       29.85R HX  84
RHINELANDER    MOSUNNY   82  63  52 W12       29.87R HX  83
EAGLE RIVER    MOSUNNY   81  60  48 W10       29.84R HX  81
LAND O LAKES   MOSUNNY   80  61  53 W6        29.84R HX  81
PHILLIPS       MOSUNNY   79  65  62 W7        29.87R HX  80
TOMAHAWK       MOSUNNY   81  63  55 W14       29.87R HX  82
MEDFORD        PTSUNNY   78  65  64 W12G17    29.88R HX  80
MERRILL        MOSUNNY   82  66  57 W12G18    29.86R HX  84
$$

WIZ029-030-035-036-043>047-250000-
CENTRAL WISCONSIN

CITY           SKY/WX    TMP DP  RH WIND       PRES   REMARKS
WAUSAU         MOSUNNY   83  65  54 W14G23    29.85R HX  85
MOSINEE        SUNNY     82  64  54 W13G21    29.87R HX  84
MARSHFIELD     MOSUNNY   82  65  56 W12G22    29.89R HX  84
STEVENS POINT  SUNNY     83  65  55 W10G16    29.86R HX  84
WAUPACA        SUNNY     89  66  47 W9        29.83R HX  91
WAUTOMA        SUNNY     87  68  52 W10       29.85R HX  90
WISC RAPIDS    MOSUNNY   86  64  47 NW12      29.88R HX  87
CAMP DOUGLAS   NOT AVBL
$$

WIZ011>013-019>022-031-037>040-048>050-250000-
NORTHEAST WISCONSIN

CITY           SKY/WX    TMP DP  RH WIND       PRES   REMARKS
ANTIGO         SUNNY     81  65  57 W9        29.85R HX  83
SHAWANO        MOSUNNY   87  72  59 W9        29.79S HX  93
OCONTO         SUNNY     86  77  74 W9        29.76S HX  96
STURGEON BAY   PTSUNNY   84  76  76 W9        29.78F HX  93
GREEN BAY      SUNNY     85  75  72 W10       29.79S HX  93
MANITOWOC      MOSUNNY   88  75  66 NW10      29.79S HX  97
APPLETON       MOSUNNY   84  66  54 W12       29.81R HX  86
CLINTONVILLE   SUNNY     86  64  48 W15G22    29.81R HX  87
OSHKOSH        MOSUNNY   87  74  64 W10       29.81R HX  95
$$

WIZ032>034-041-042-053>061-250000-
SOUTHWEST WISCONSIN

CITY           SKY/WX    TMP DP  RH WIND       PRES   REMARKS
LA CROSSE      MOSUNNY   85  66  53 NW13      29.90R HX  87
SPARTA         MOSUNNY   83  64  54 W10G21    29.91R HX  84
VIROQUA        MOSUNNY   81  65  58 W8        29.93R HX  82
BOSCOBEL       MOSUNNY   86  69  56 W8        29.91R HX  90
PRAIRIE DU CHI MOSUNNY   82  65  55 W10G20    29.91R HX  84
PLATTEVILLE    SUNNY     86  75  70 NW10G16   29.90R HX  95
$$

WIZ056-057-062-063-064-067-068-250000-
SOUTH CENTRAL WISCONSIN

CITY           SKY/WX    TMP DP  RH WIND       PRES   REMARKS
REEDSBURG      SUNNY     84  68  58 W12       29.88R HX  88
BARABOO/DELLS  SUNNY     85  63  47 W10       29.87R HX  86
LONE ROCK      NOT AVBL
MINERAL POINT  SUNNY     86  66  51 W12       29.90R HX  88
MADISON        CLOUDY    89  76  65 W10G16    29.84R HX 100
MIDDLETON      CLOUDY    90  75  62 W13       29.86R HX 100
WATERTOWN      CLOUDY    88  76  68 W9        29.83S HX  99
MONROE         PTSUNNY   88  77  70 W14       29.87R HX 100
JANESVILLE     MOSUNNY   91  79  66 W12       29.85R HX 107
$$

WIZ051-052-058>065-066-070>072-250000-
SOUTHEAST WISCONSIN

CITY           SKY/WX    TMP DP  RH WIND       PRES   REMARKS
MILWAUKEE      PTSUNNY   93  77  59 SW14G24   29.81S HX 107
WAUKESHA       NOT AVBL
MILWAUKEE/TIMM NOT AVBL
RACINE         MOSUNNY   87  73  62 S9        29.84S HX  94
BURLINGTON     CLOUDY    91  78  67 SW12      29.84S HX 106
KENOSHA        CLOUDY    92  79  65 SW12      29.84F HX 108
FOND DU LAC    MOSUNNY   89  73  59 W10       29.82R HX  97
SHEBOYGAN      SUNNY     88  77  69 W7        29.80S HX 100
WEST BEND      CLOUDY    88  75  66 W12G18    29.81F HX  97
JUNEAU         SUNNY     87  76  71 W8        29.84S HX  97
$$

LSZ147-162-250000-
LAKE SUPERIOR

STATION/POSITION TIME  TEMP    WIND        PRES    WAVE
                       AIR SEA DIR/SP/G            HT/PER
                 (UTC) (F)     (DEG/KT/KT) (MB)    (FT/S)
W MID LAKE BUOY  2150   65 58  250/ 14/ 16 1006.8R   2/ 4
DEVILS ISLAND    2200   70     250/ 19/ 21 1008.2S
SAXON HARBOR     2200   80     300/ 10/ 15 1009.1R
$$

LMZ867-665-643>646-250000-
LAKE MICHIGAN

STATION/POSITION TIME  TEMP    WIND        PRES    WAVE
                       AIR SEA DIR/SP/G            HT/PER
                 (UTC) (F)     (DEG/KT/KT) (MB)    (FT/S)
CHAMBERS ISLAND  2200   80     180/  3/  8 1007.8F
S GREEN BAY BUOY 2200   78 75  170/  4/  6   N/A
N MID LAKE BUOY  2150   70 68  220/ 16/ 17 1007.4F   4/ 6
NORTHPORT PIER   2200   80     160/  3/  9 1007.8F
KEWAUNEE LAKESHO 2200   61                   N/A
SHEBOYGAN LAKESH 2200   71     170/ 12/ 14 1008.9R
PORT WASHINGTON  2240   80     250/  9/ 13 1009.5S
MILWAUKEE LAKESH 2210   90     250/ 13/ 16   N/A
S MID LAKE BUOY  2150   77 72  190/ 14/ 14 1009.2R   3/ 4
KENOSHA   LAKESH 2200   76     170/  7/ 15 1009.8F
$$

TC  - TEMPERATURE IN CELSIUS
VSB - VISIBILITY IN STATUTE MILES
WCI - WIND CHILL INDEX
HX  - HEAT INDEX





USA.gov is the U.S. government's official web portal to all federal, state and local government web resources and services.